Farnborough, United Kingdom

2:52 AM BST on March 26, 2017 (GMT +0100)
Farnborough

Weather History for EGLF - October, 2013

Change the Weather History Date:

Thursday, October 17, 2013

  Actual Average Record
Temperature  
Mean Temperature 56 °F -  
Max Temperature 63 °F - - ()
Min Temperature 50 °F - - ()
Degree Days  
Heating Degree Days 8    
Growing Degree Days 6 (Base 50)    
Moisture  
Dew Point 54 °F    
Average Humidity 88    
Maximum Humidity 100    
Minimum Humidity 62    
Precipitation  
Precipitation 0.01 in - - ()
Sea Level Pressure  
Sea Level Pressure 29.96 in    
Wind  
Wind Speed 8 mph ()    
Max Wind Speed 14 mph    
Max Gust Speed -    
Visibility 7.8 miles    
Events Rain    
T = Trace of Precipitation, MM = Missing Value Source: Averaged Metar Reports

Daily Weather History Graph

Daily Weather History Graph

Search for Another Location

Airport or City:

Trip Planner

Search our weather history database for the weather conditions in past years. The results will help you decide how hot, cold, wet, or windy it might be!

Date:

Astronomy

Oct. 17, 2013 Rise Set
Actual Time 7:30 AM BST 6:05 PM BST
Civil Twilight 6:56 AM BST 6:39 PM BST
Nautical Twilight 6:18 AM BST 7:17 PM BST
Astronomical Twilight 5:39 AM BST 7:56 PM BST
Moon 5:16 PM BST (10/17) 5:37 AM BST (10/17)
Length of Visible Light 11h 42m
Length of Day
10h 35m
Waxing Gibbous, 97% of the Moon is Illuminated
Oct 17
Waxing Gibbous
Oct 19
Full
Oct 27
Last Quarter
Nov 3
New
Nov 10
First Quarter

Hourly Weather History & Observations

Time (BST) Temp. Dew Point Humidity Pressure Visibility Wind Dir Wind Speed Gust Speed Precip Events Conditions
12:50 AM 55 °F 51 °F 84% 29.85 in 11 mi WSW 13.8 mph - -  
3:50 AM 54 °F 50 °F 83% 29.87 in 11 mi WSW 10.4 mph - -   Scattered Clouds
6:50 AM 56 °F 53 °F 86% 29.89 in 9 mi WSW 11.5 mph - -   Partly Cloudy
6:50 AM 55.4 °F 55.4 °F 100% 29.89 in 3.7 mi WSW 11.5 mph - N/A Rain Light Rain
7:20 AM 55.4 °F 53.6 °F 94% 29.89 in 6.2 mi WSW 13.8 mph - N/A   Mostly Cloudy
7:50 AM 55.4 °F 55.4 °F 100% 29.89 in 6.2 mi West 6.9 mph - N/A   Scattered Clouds
8:20 AM 55.4 °F 55.4 °F 100% 29.92 in 6.2 mi West 4.6 mph - N/A   Scattered Clouds
8:50 AM 57.2 °F 55.4 °F 94% 29.92 in 6.2 mi WSW 6.9 mph - N/A   Partly Cloudy
9:50 AM 58 °F 54 °F 80% 29.93 in 13 mi West 10.4 mph - -   Partly Cloudy
9:50 AM 57.2 °F 55.4 °F 94% 29.92 in 6.2 mi West 9.2 mph - N/A   Partly Cloudy
10:20 AM 59.0 °F 55.4 °F 88% 29.95 in 6.2 mi West 9.2 mph - N/A   Partly Cloudy
10:50 AM 59.0 °F 55.4 °F 88% 29.95 in 6.2 mi West 13.8 mph - N/A   Scattered Clouds
11:20 AM 59.0 °F 55.4 °F 88% 29.95 in 6.2 mi West 13.8 mph - N/A   Scattered Clouds
11:50 AM 60.8 °F 55.4 °F 82% 29.95 in 6.2 mi WSW 11.5 mph - N/A   Scattered Clouds
12:20 PM 60.8 °F 57.2 °F 88% 29.95 in 6.2 mi WSW 13.8 mph - N/A Rain Light Rain
12:50 PM 58 °F 54 °F 82% 29.97 in 9 mi West 10.4 mph - -   Mostly Cloudy
12:50 PM 59.0 °F 57.2 °F 94% 29.98 in 6.2 mi West 8.1 mph - N/A   Scattered Clouds
1:20 PM 59.0 °F 55.4 °F 88% 29.98 in 6.2 mi NW 8.1 mph - N/A Rain Light Rain Showers
1:50 PM 59.0 °F 57.2 °F 94% 29.98 in 6.2 mi WNW 5.8 mph - N/A   Scattered Clouds
2:20 PM 60.8 °F 59.0 °F 94% 29.98 in 6.2 mi West 5.8 mph - N/A   Scattered Clouds
2:50 PM 60.8 °F 57.2 °F 88% 29.98 in 6.2 mi NW 8.1 mph - N/A   Mostly Cloudy
3:20 PM 62.6 °F 57.2 °F 82% 29.98 in 6.2 mi West 4.6 mph - N/A   Scattered Clouds
3:50 PM 63 °F 53 °F 62% 29.97 in 19 mi West 8.1 mph - -   Scattered Clouds
3:50 PM 62.6 °F 55.4 °F 77% 29.98 in 6.2 mi West 8.1 mph - N/A   Partly Cloudy
4:20 PM 64.4 °F 53.6 °F 68% 29.98 in - West 8.1 mph - N/A   Clear
4:50 PM 62.6 °F 51.8 °F 68% 29.98 in - West 6.9 mph - N/A   Clear
5:20 PM 62.6 °F 51.8 °F 68% 29.98 in - West 4.6 mph - N/A   Clear
5:50 PM 59.0 °F 53.6 °F 82% 29.98 in - Variable 2.3 mph - N/A   Clear
6:20 PM 53.6 °F 53.6 °F 100% 29.98 in - Variable 3.5 mph - N/A   Clear
6:50 PM 51 °F 49 °F 90% 29.99 in 17 mi SW 5.8 mph - -  
6:50 PM 51.8 °F 51.8 °F 100% 29.98 in - SW 5.8 mph - N/A   Clear
7:20 PM 50.0 °F 50.0 °F 100% 29.98 in 6.2 mi WSW 4.6 mph - N/A   Partly Cloudy
7:50 PM 51.8 °F 51.8 °F 100% 30.01 in 6.2 mi Variable 1.2 mph - N/A   Partly Cloudy
8:20 PM 50.0 °F 50.0 °F 100% 30.01 in - Variable 1.2 mph - N/A   Clear
8:50 PM 50.0 °F 50.0 °F 100% 30.01 in - Variable 1.2 mph - N/A   Clear
9:20 PM 53.6 °F 51.8 °F 94% 30.01 in - SW 5.8 mph - N/A   Clear
9:50 PM 53 °F 52 °F 94% 30.03 in 7 mi WSW 2.3 mph - -